Location: Home
(42.5358°N, 72.7383°W)
Time: 05:48:52
(UTC-05:00)

Courier 1B Rocket - Pass Details

Date: 08 December 2021
Orbit: 920 x 1202 km, 28.2° (Epoch: 25 January)

Event Time Altitude Azimuth Distance (km) Brightness Sun altitude
Rises 22:15:44 0° 244° (WSW) 3,747 - -63.2°
Reaches altitude 10° 22:19:05 10° 230° (SW) 2,746 - -63.7°
Maximum altitude 22:24:00 22° 181° (S) 1,937 - -64.3°
Drops below altitude 10° 22:28:46 10° 132° (SE) 2,636 - -64.9°
Sets 22:31:53 0° 118° (ESE) 3,559 - -65.3°
